Location: Newark
(41.0400°S, 62.7845°W)
Time: 22:48:42
(UTC+00:00)

Vanguard 2 - Pass Details

Date: 06 December 2021
Orbit: 554 x 2935 km, 32.9° (Epoch: 27 January)

Event Time Altitude Azimuth Distance (km) Brightness Sun altitude
Rises 05:16:08 0° 289° (WNW) 6,744 12.0 -24.2°
Reaches altitude 10° 05:20:40 10° 291° (WNW) 5,770 11.6 -23.9°
Maximum altitude 05:38:04 62° 5° (N) 2,858 10.0 -22.7°
Drops below altitude 10° 05:50:55 10° 81° (E) 4,405 11.6 -21.6°
Sets 05:53:52 0° 84° (E) 5,125 12.0 -21.4°
